{"data":{"norad_id":66890,"intl_designator":"2025-283N","name":"STARLINK-35885","alt_names":[],"object_type":"PAYLOAD","status":"ACTIVE","operator":null,"country":"US","launch_date":"2025-12-04","launch_site_code":"AFWTR","launch_vehicle":null,"mission":null,"orbit_class":"UNKNOWN","rcs_meters":null,"size_class":null,"mass_kg":null,"dimensions":null,"purposes":["comms"],"wikipedia_slug":null,"has_3d_model":false,"image_url":null,"decayed_at":null,"tle_current":{"epoch":"2026-09-20T07:42:24.172704Z","epoch_age_seconds":99527,"freshness":"FRESH","line1":"1 66890U 25283N   26263.32111311  .00019564  00000+0  58805-3 0  9994","line2":"2 66890  53.1584 196.5412 0001327 104.5381 255.5769 15.34432854 45692","mean_motion":15.34432854,"eccentricity":0.0001327,"inclination_deg":53.1584,"raan_deg":196.5412,"arg_perigee_deg":104.5381,"mean_anomaly_deg":255.5769,"bstar":0.00058805,"rev_number":4569,"period_min":93.845748691197,"perigee_km":461.69782639568,"apogee_km":463.51335947984,"semimajor_km":6840.7425929378,"source":"CELESTRAK","updated_at":"2026-09-21T09:00:36.034573Z"}}}